Location: Unspecified
(0.0000°N, 0.0000°E)
Time: 22:18:57
(UTC+00:00)

N. Korean satellite - Pass Details

Date: 18 September 2017
Orbit: 460 x 514 km, 97.2° (Epoch: 22 November)

Event Time Altitude Azimuth Distance (km) Brightness Sun altitude
Rises 19:11:10 0° 196° (SSW) 2,607 10.5 -19.3°
Reaches altitude 10° 19:13:45 10° 215° (SW) 1,727 9.8 -19.9°
Maximum altitude 19:16:19 18° 259° (W) 1,313 9.7 -20.6°
Drops below altitude 10° 19:18:53 10° 303° (WNW) 1,733 10.2 -21.2°
Sets 19:21:30 0° 322° (NW) 2,619 10.8 -21.9°
